User: anonymous   Login
Location: Unspecified
(0.0000°N, 0.0000°E)
Time: 13:05:07
(UTC+01:00)
Language:

ARIANE 44L R/B - Orbit

View from above orbital plane
View from above orbital plane
View from above satellite
View from above satellite

Ground track
Ground track

The orbit data is extracted from the following two-line orbital elements,

1 26901U 01039B   14302.97020867  .00006272  00000-0  22799-2 0  1473
2 26901 007.1990 262.2378 6967693 097.7703 013.8932 02.67164906117236
Epoch (UTC): 29 October 2014 23:17:06
Eccentricity: 0.6967693
inclination: 7.1990°
perigee height: 274 km
apogee height: 30847 km
right ascension of ascending node: 262.2378°
argument of perigee: 97.7703°
revolutions per day: 2.67164906
mean anomaly at epoch: 13.8932°
orbit number at epoch: 11723

The dashed part of the orbit path shows where the satellite is in the earth's shadow,  

DLR